Other Surface Observations
Issued by NWS

Home | Current Version | Previous Version | Text Only | Print | Product List | Glossary On
Versions: 1 2 3 4 5 6 7 8 9 10 11 12 13 14 15 16 17 18 19 20 21 22 23 24 25 26 27 28 29 30 31 32 33 34 35 36 37 38 39 40 41 42 43 44 45 46 47 48 49 50
202
SXUS52 KTAE 240205
OSOTAE
OSOTAE
North Florida/South Alabama/Southwest Georgia Weather Roundup
National Weather Service Tallahassee Florida
900 PM EST MON JAN 23 2017

Note: "fair" indicates few or no clouds below 12,000 feet with no
significant weather and/or obstructions to visibility.

!FLZ017-115-028-034-025-240300
...North Florida...

CITY           SKY/WX    TMP DP  RH WIND       PRES   REMARKS
TALLAHASSEE    CLEAR     62  49  62 W17       29.72R
APALACHICOLA   CLEAR     64  52  64 NW13      29.75R
PERRY          CLEAR     59  49  68 W9        29.71R
CROSS CITY     CLEAR     61  50  67 W14       29.70R
JACKSONVILLE   PTCLDY    57  49  74 W10       29.62R
$$

!FLZ112-006-005-002-011-240300
...Florida Panhandle...

CITY           SKY/WX    TMP DP  RH WIND       PRES   REMARKS
MARIANNA       CLEAR     60  48  64 W7        29.75R
BONIFAY        FAIR      58  49  72 W5        29.77R
PANAMA CITY NW FAIR      62  48  60 W13       29.76R
TYNDALL AFB    CLEAR     63  49  59 NW15      29.77R
TYND DRONE APT FAIR      64  51  61 NW9G21    29.78R
DE FUNIAK SPR  FAIR      59  47  63 NW6       29.79R
EGLIN AFB      CLEAR     59  46  63 NW9       29.79R
DESTIN         CLEAR     65  50  58 VRB5      29.79R
HURLBURT       NOT AVBL
CRESTVIEW      CLEAR     59  47  64 NW6       29.80R
PENSACOLA      CLEAR     62  48  60 W12       29.82R
$$

!ALZ063-066-240300
...South Alabama...

CITY           SKY/WX    TMP DP  RH WIND       PRES   REMARKS
DOTHAN         CLEAR     58  49  72 NW16      29.78R
OZARK CAIRNS   CLEAR     57  48  70 W6        29.76R
FT RUCKER HELI CLEAR     60  46  59 NW7       29.75R
RUCKER HELI 3  NOT AVBL
RUCKER HELI 2  FAIR      59  47  64 W7          N/A
FLORALA APT    CLEAR     57  46  66 VRB3      29.80R
ANDALUSIA      CLEAR     60  47  61 W13       29.79R
TROY           CLEAR     57  46  66 W8        29.78R
EUFALA         FAIR      59  47  64 W5        29.71R
MOBILE         CLEAR     59  47  64 W6        29.86R
$$

!GAZ120>161-240300
...Southwest and South Central Georgia...

CITY           SKY/WX    TMP DP  RH WIND       PRES   REMARKS
THOMASVILLE    FAIR      61  50  67 W6        29.69R
BAINBRIDGE     CLEAR     59  48  67 W15       29.73R
MOODY AFB      CLEAR     57  48  71 W10       29.64R
VALDOSTA       CLEAR     57  48  72 W5        29.66R
MOULTRIE       CLEAR     59  46  63 W7        29.69R
BLAKELY        CLEAR     61  48  63 W7        29.73R
ALBANY         CLEAR     60  47  61 W10G20    29.70R
TIFTON         FAIR      58  48  71 W12       29.66R
FITZGERALD     FAIR      56  49  78 W8        29.66R
CORDELE        FAIR      60  47  62 NW8       29.68R
AMERICUS       FAIR      57  43  58 NW8G16    29.69R
HOMERVILLE     FAIR      52  50  93 W6        29.64R
$$

!GMZ750-755-770-775-240300
...Coastal and Buoy Obs...

STATION/POSITION TIME  TEMP    WIND        PRES    VSBY  WAVE
                       AIR SEA DIR/SP/G                  HT/PER
                 (UTC) (F)     (DEG/KT/KT) (MB)    (MI)  (FT/S)
KEATON BEACH     0100   65     290/ 19/ 23 1004.6R
CEDAR KEY        0100   64     300/ 15/ 18 1005.3R
C TOWER          0100   66     300/ 28/ 31 1007.2R
APALACHICOLA BUO 0050   68 71  300/ 25/ 31 1006.5         13/11
PANAMA CITY BUOY 0050   67 74              1008.3         13/ 9
MOBILE BUOY      NOT AVBL
ORANGE BCH AL BU 0050   65 65  290/ 17/ 21 1008.9          5/ 6
$$




USA.gov is the U.S. government's official web portal to all federal, state and local government web resources and services.